www.pogodaiklimat.ru

Погода и климат >> Архив погоды >> Черногория >> Подгорица-Град


ПОГОДА в Подгорица-Граде

  • Прогноз погоды в Подгорица-Граде
  • Монитор погоды в Подгорица-Граде

АРХИВ ПОГОДЫ в Подгорица-Граде

Время (UTC), дата Ветер
(напр.,м/с)
 
Видим.   Явления Облачность Т
(С)
Тd
(С)
f
(%)
Тe
(С)
Тes
(С)
Комфортность P
(гПа)
Po
(гПа)
Тmin
(С)
Tmax
(С)
R
(мм)
R24
(мм)
S
(см)
03 9.06 З 1 20 км 1/0
[Ac trans]
+22.7 +15.8 65 +27 +27 душно 1020.2 1014.3
04 9.06 ЮЗ 1 20 км ясно +22.1 +16.0 68 +26 +27 душно 1020.1 1014.2
05 9.06 З 1 20 км ясно +25.1 +17.9 64 +29 +32 душно 1020.1 1014.3
06 9.06 СЗ 2 20 км ясно +26.1 +18.0 61 +31 +36 очень
душно
1020.2 1014.4 +21.9
07 9.06 С 2 20 км ясно +29.3 +17.6 49 +33 +43 душно 1019.8 1014.1
08 9.06 З 2 20 км ясно +30.9 +19.2 50 +37 +50 очень
душно
1019.5 1013.8
09 9.06 С 3 20 км ясно +33.1 +16.0 36 +36 +50 очень
душно
1019.2 1013.5
10 9.06 СВ 3 20 км ясно +34.3 +15.3 32 +36 +52 опасность
солнечного
удара
1018.6 1013.0
11 9.06 С 3 20 км ясно +34.8 +17.8 37 +39 +55 опасность
солнечного
удара
1018.0 1012.4
12 9.06 Ю 4 20 км ясно +33.5 +19.0 42 +38 +51 опасность
солнечного
удара
1017.4 1011.7
13 9.06 Ю 2 20 км 1/1 1000 м
[Cu hum]
+34.1 +18.3 39 +38 +52 опасность
солнечного
удара
1016.7 1011.1
14 9.06 Ю 2 20 км 1/1 1000 м
[Cu hum]
+35.4 +16.9 33 +38 +48 очень
душно
1016.2 1010.6
15 9.06 Ю 3 20 км 1/1 1000 м
[Cu hum]
+34.0 +16.8 36 +37 +42 очень
душно
1016.0 1010.4
16 9.06 Ю 2 20 км 1/1 1000 м
[Cu hum]
+33.6 +16.8 37 +37 +40 очень
душно
1015.6 1010.0
17 9.06 Ю 2 20 км ясно +33.3 +17.0 38 +37 +38 очень
душно
1015.5 1009.9
18 9.06 З 1 20 км ясно +31.6 +18.3 45 +36 +36 очень
душно
1015.8 1010.1 +35.0
19 9.06 З 1 20 км ясно +31.6 +18.3 45 +36 +36 очень
душно
1015.8 1010.1
20 9.06 З 1 20 км ясно +27.3 +19.7 63 +33 +33 очень
душно
1017.0 1011.2
21 9.06 СВ 1 20 км ясно +26.2 +19.3 66 +32 +32 очень
душно
1016.9 1011.1
00 10.06 С 2 20 км ясно +26.7 +13.9 45 +29 +29 жарко 1017.2 1011.4
03 10.06 С 2 20 км ясно +23.1 +13.4 54 +26 +26 жарко 1016.3 1010.5
04 10.06 С 2 20 км ясно +23.5 +13.0 52 +26 +26 жарко 1016.2 1010.4
05 10.06 З 2 20 км 1/1 1000 м
[Cu hum]
+23.9 +15.4 59 +27 +29 жарко 1016.1 1010.3
06 10.06 С 2 20 км 1/0
[Ci sp]
+26.8 +13.2 43 +29 +34 жарко 1016.1 1010.3 +22.8
07 10.06 З 3 20 км ясно +28.0 +13.2 40 +30 +37 жарко 1015.7 1010.0
08 10.06 З 2 20 км ясно +29.8 +14.4 39 +32 +45 душно 1015.1 1009.4
09 10.06 З 2 20 км ясно +30.8 +14.7 38 +33 +50 душно 1014.8 1009.1
10 10.06 ЮЗ 2 20 км 3/3 1000 м
[Cu med, cong]
+32.5 +15.7 36 +35 +48 душно 1013.9 1008.3
11 10.06 ЮЗ 2 20 км 3/3 1000 м
[Cu med, cong]
+32.9 +16.8 38 +36 +50 очень
душно
1013.5 1007.9
12 10.06 Ю 3 20 км 4/4 1000 м
[Cu med, cong]
+32.8 +14.7 34 +35 +44 душно 1013.0 1007.4
13 10.06 Ю 3 20 км 4/4 1000 м
[Cu med, cong]
+33.0 +15.3 35 +35 +43 душно 1012.3 1006.7
14 10.06 Ю 3 20 км 4/4 1000 м
[Cb calv]
+34.6 +15.6 32 +37 +42 очень
душно
1011.9 1006.3
15 10.06 В 4 20 км 5/5 1000 м
[Cb calv]
+33.1 +15.1 34 +35 +37 душно 1011.4 1005.8
16 10.06 В 2 20 км 6/4 1000 м
[Cb calv Cc]
+32.5 +15.6 36 +35 +37 душно 1010.9 1005.3
17 10.06 В 2 20 км 6/4 1000 м
[Cb calv Cc]
+30.1 +15.8 42 +33 +34 душно 1011.0 1005.3
18 10.06 З 1 20 км 4/1 1000 м
[Cb calv Cc]
+28.4 +17.0 50 +32 +32 душно 1011.2 1005.5 +34.6
19 10.06 С 2 20 км 4/1 1000 м
[Cu med, cong Cc]
+27.7 +16.6 51 +31 +31 душно 1011.4 1005.7
20 10.06 С 1 20 км 4/1 1000 м
[Cu med, cong Cc]
+26.5 +16.6 55 +30 +30 душно 1012.0 1006.2
21 10.06 З 1 20 км ясно +25.7 +16.8 58 +29 +29 душно 1011.8 1006.0
00 11.06 Ю 1 20 км ясно +23.1 +16.6 67 +28 +28 душно 1011.9 1006.1
03 11.06 СЗ 1 20 км ясно +22.5 +14.9 62 +26 +26 жарко 1011.2 1005.4
04 11.06 С 1 20 км 1/0
[Ci fib]
+21.3 +15.5 70 +25 +25 комфорт 1011.4 1005.6
05 11.06 С 1 20 км 1/0
[Ci fib]
+24.6 +16.3 60 +28 +31 душно 1011.6 1005.8
06 11.06 СЗ 2 20 км 3/0
[Ci fib]
+26.4 +15.4 51 +29 +34 жарко 1011.6 1005.8 +21.2
07 11.06 З 1 20 км 4/0
[Cc]
+27.9 +16.4 50 +31 +42 душно 1011.5 1005.8
08 11.06 З 2 20 км 5/1 1000 м
[Cu med, cong Cc]
+29.3 +16.1 45 +32 +44 душно 1011.1 1005.4
09 11.06 СЗ 2 20 км 5/1 1000 м
[Cu med, cong Cc]
+30.6 +14.3 37 +32 +47 жарко 1011.1 1005.4
10 11.06 ЮЗ 2 20 км 5/1 1000 м
[Cu med, cong Cc]
+31.3 +16.1 40 +34 +50 душно 1011.1 1005.4
11 11.06 ЮЗ 2 20 км 4/4 1000 м
[Cu med, cong Ci sp]
+32.1 +17.0 40 +35 +47 очень
душно
1010.6 1005.0
12 11.06 Ю 3 20 км 4/3 1000 м
[Cu med, cong Ci sp]
+32.5 +14.9 35 +35 +45 душно 1010.5 1004.6
13 11.06 Ю 3 20 км 4/4 1000 м
[Cu med, cong]
+32.8 +13.9 32 +34 +42 очень
жарко
1010.0 1004.4
14 11.06 ЮЗ 2 20 км 4/4 1000 м
[Cu med, cong]
+32.7 +15.3 35 +35 +41 душно 1009.7 1004.1
15 11.06 Ю 3 20 км гроза без осадков 6/6 1000 м
[Cb cap]
+32.2 +14.8 35 +34 +36 душно 1009.7 1004.1
20 11.06 В 1 20 км 4/1 1000 м
[Cu med, cong Ac trans Ci sp]
+25.2 +17.2 61 +29 +29 душно 1012.8 1007.0
21 11.06 З 1 20 км 3/0
[Ac trans Ci sp]
+24.6 +17.4 64 +29 +29 душно 1012.7 1006.9
00 12.06 В 1 20 км ясно +22.4 +17.5 74 +27 +27 душно 1012.7 1006.9
03 12.06 З 1 20 км ясно +21.5 +16.3 72 +25 +25 комфорт 1013.0 1007.1
04 12.06 СВ 1 20 км ясно +21.9 +16.2 70 +26 +26 душно 1013.2 1007.4
05 12.06 В 2 20 км ясно +23.6 +16.6 65 +27 +29 жарко 1013.7 1007.9
06 12.06 З 2 20 км ясно +25.1 +17.8 64 +29 +35 душно 1014.1 1008.3 +21.4
07 12.06 З 1 20 км ясно +26.9 +17.1 55 +31 +42 душно 1014.4 1008.6
08 12.06 З 1 20 км ясно +28.1 +17.2 52 +32 +48 душно 1014.3 1008.6
09 12.06 Ю 2 20 км 3/3 1000 м
[Cu med, cong]
+29.1 +17.4 49 +33 +45 очень
душно
1014.3 1008.6
11 12.06 В 3 20 км ясно +31.0 +19.3 50 +37 +53 опасность
солнечного
удара
1013.9 1008.2
12 12.06 Ю 3 20 км 1/1 1000 м
[Cu med, cong]
+31.6 +18.3 45 +36 +50 очень
душно
1013.6 1007.9
13 12.06 Ю 3 20 км 3/3 1000 м
[Cu med, cong]
+32.5 +16.5 38 +35 +44 душно 1013.3 1007.7
14 12.06 Ю 2 20 км 4/4 1000 м
[Cu med, cong]
+32.9 +16.5 37 +36 +42 очень
душно
1012.9 1007.3
15 12.06 Ю 1 15 км 5/5 1000 м
[Cu Sc]
+33.2 +17.0 38 +36 +41 очень
душно
1013.0 1007.4
16 12.06 ЮЗ 3 15 км 5/5 1000 м
[Cu Sc]
+32.7 +17.6 41 +37 +38 очень
душно
1012.9 1007.3
17 12.06 Ю 2 18 км 8/5 1000 м
[Cu Sc Ci sp]
+31.7 +18.1 44 +36 +37 очень
душно
1013.4 1007.7
18 12.06 ЮЗ 1 18 км 8/4 1000 м
[Cu Sc Cs]
+30.7 +18.1 47 +35 +35 очень
душно
1013.6 1007.9 +33.9
19 12.06 З 2 20 км 8/3 1000 м
[Cu med, cong Ac trans Cs]
+29.1 +18.4 52 +34 +34 очень
душно
1013.8 1008.1
20 12.06 З 2 20 км 3/3 1000 м
[Cu med, cong]
+27.4 +17.8 56 +32 +32 очень
душно
1014.6 1008.9
21 12.06 С 1 20 км ясно +25.6 +17.1 59 +29 +29 душно 1015.1 1009.3
00 13.06 З 1 20 км ясно +23.0 +17.4 71 +28 +28 душно 1015.1 1009.3
03 13.06 З 1 20 км ясно +21.4 +17.8 80 +26 +26 душно 1015.1 1009.2
04 13.06 З 1 20 км ясно +21.3 +17.5 79 +25 +26 комфорт 1015.3 1009.4
05 13.06 СЗ 1 20 км ясно +24.0 +18.0 69 +28 +31 душно 1015.8 1010.0
06 13.06 З 1 20 км ясно +26.8 +18.2 59 +31 +38 душно 1016.2 1010.4 +21.1
07 13.06 СЗ 1 20 км ясно +28.1 +17.8 54 +33 +44 очень
душно
1016.1 1010.5
08 13.06 С 1 20 км ясно +29.6 +17.9 49 +34 +50 очень
душно
1016.2 1010.5
09 13.06 ЮЗ 2 20 км ясно +31.3 +18.3 46 +36 +53 опасность
солнечного
удара
1016.1 1010.4
10 13.06 Ю 1 20 км ясно +32.3 +18.3 43 +37 +59 опасность
солнечного
удара
1016.0 1010.3
11 13.06 ЮЗ 2 20 км ясно +32.8 +18.6 43 +38 +57 опасность
солнечного
удара
1015.9 1010.2
12 13.06 Ю 2 20 км ясно +33.6 +15.3 33 +35 +54 опасность
солнечного
удара
1015.5 1009.9
13 13.06 ЮЗ 2 20 км ясно +34.5 +14.4 30 +36 +51 опасность
солнечного
удара
1015.6 1010.0
14 13.06 ЮЗ 2 20 км ясно +34.8 +14.4 29 +36 +47 душно 1015.5 1009.9
15 13.06 З 2 20 км ясно +34.3 +14.3 30 +35 +42 очень
жарко
1015.4 1009.8
16 13.06 ЮЗ 2 20 км ясно +32.8 +14.9 34 +35 +38 душно 1015.3 1009.7
17 13.06 Ю 3 20 км ясно +32.3 +12.7 30 +33 +34 жарко 1015.6 1009.9
18 13.06 В 2 20 км ясно +30.4 +13.2 35 +32 +32 жарко 1015.8 1010.1 +35.1
19 13.06 З 1 20 км ясно +27.7 +14.5 44 +30 +30 жарко 1016.2 1010.4
20 13.06 СЗ 1 20 км ясно +26.3 +14.7 49 +29 +29 жарко 1016.7 1010.9
21 13.06 Ю 1 20 км ясно +24.5 +15.1 56 +27 +27 жарко 1017.2 1011.4
00 14.06 З 1 20 км ясно +21.8 +14.1 62 +25 +25 комфорт 1017.1 1011.2
03 14.06 СЗ 2 20 км ясно +20.7 +12.8 61 +24 +24 комфорт 1017.1 1011.2
04 14.06 СЗ 2 20 км ясно +20.7 +13.8 65 +24 +24 комфорт 1017.1 1011.2
05 14.06 В 2 20 км ясно +23.3 +13.4 54 +27 +29 душно 1011.5 1005.7
06 14.06 З 1 20 км ясно +25.9 +14.8 50 +28 +35 жарко 1017.6 1011.8 +19.8
07 14.06 СЗ 1 20 км ясно +27.3 +14.7 46 +30 +41 душно 1017.7 1011.3
08 14.06 С 1 20 км ясно +29.8 +12.8 35 +31 +47 жарко 1017.9 1011.6
09 14.06 З 2 20 км ясно +31.3 +14.8 37 +33 +51 опасность
солнечного
удара
1017.1 1011.4
10 14.06 С 1 20 км ясно +32.5 +14.4 33 +34 +57 опасность
солнечного
удара
1017.0 1011.3
11 14.06 Ю 2 20 км 1/1 1000 м
[Cu med, cong]
+33.9 +15.7 34 +36 +54 опасность
солнечного
удара
1016.5 1010.9
12 14.06 З 2 20 км 3/3 1000 м
[Cu med, cong]
+34.4 +17.0 36 +38 +50 очень
душно
1015.9 1010.3
13 14.06 Ю 1 20 км 3/3 1000 м
[Cu med, cong]
+34.6 +14.4 30 +36 +48 душно 1015.4 1009.8
14 14.06 ЮЗ 2 20 км 3/3 1000 м
[Cu med, cong]
+35.4 +13.8 27 +36 +44 очень
жарко
1014.9 1009.3
15 14.06 З 2 20 км 3/3 1000 м
[Cu med, cong]
+35.5 +14.1 28 +36 +41 очень
жарко
1014.7 1009.1
16 14.06 З 2 20 км 3/3 1000 м
[Cu med, cong]
+36.2 +14.5 27 +37 +39 очень
жарко
1014.5 1008.9
17 14.06 ЮЗ 2 20 км 1/1 1000 м
[Cu med, cong]
+34.2 +14.3 30 +35 +36 очень
жарко
1014.7 1009.1
18 14.06 З 1 20 км ясно +32.1 +13.6 33 +33 +33 жарко 1015.1 1009.4 +36.2
19 14.06 В 1 20 км ясно +30.6 +17.4 45 +35 +35 очень
душно
1015.2 1009.5
20 14.06 З 1 20 км ясно +28.6 +18.7 55 +34 +34 очень
душно
1016.8 1010.1
21 14.06 З 1 20 км ясно +26.3 +18.4 62 +31 +31 душно 1016.0 1010.2
00 15.06 СЗ 1 20 км ясно +24.6 +18.6 69 +29 +29 душно 1015.4 1009.6
03 15.06 З 1 20 км ясно +22.6 +17.0 71 +27 +27 душно 1014.8 1009.0
04 15.06 СЗ 1 20 км ясно +24.4 +16.5 61 +28 +28 душно 1014.9 1009.1
05 15.06 С 1 20 км ясно +26.0 +17.4 59 +30 +33 душно 1014.8 1009.0
06 15.06 СЗ 2 20 км ясно +28.1 +16.9 51 +32 +37 душно 1014.7 1009.0 +22.3
07 15.06 З 1 20 км ясно +30.3 +17.4 46 +34 +45 очень
душно
1014.8 1009.1
08 15.06 З 1 20 км ясно +31.5 +16.9 42 +35 +51 опасность
солнечного
удара
1014.7 1009.0
09 15.06 СЗ 2 20 км ясно +32.7 +16.0 37 +35 +53 опасность
солнечного
удара
1014.2 1008.6
10 15.06 ЮЗ 1 20 км ясно +34.1 +16.0 34 +37 +59 опасность
солнечного
удара
1013.8 1008.2
11 15.06 ЮЗ 2 20 км ясно +35.3 +14.3 28 +36 +56 опасность
солнечного
удара
1013.3 1007.7
12 15.06 З 2 20 км ясно +35.9 +13.5 26 +36 +55 опасность
солнечного
удара
1012.8 1007.2
13 15.06 Ю 3 20 км ясно +36.3 +11.4 22 +36 +48 очень
жарко
1012.3 1006.7
14 15.06 З 3 20 км ясно +36.5 +11.7 22 +36 +45 очень
жарко
1012.0 1006.4
15 15.06 ЮЗ 2 20 км ясно +36.6 +15.5 29 +38 +45 очень
душно
1011.6 1006.0
16 15.06 З 2 20 км ясно +35.3 +16.0 32 +38 +41 очень
душно
1011.3 1005.7
17 15.06 Ю 2 20 км 4/0
[Cs]
+33.3 +15.7 35 +36 +37 очень
душно
1011.4 1005.8
18 15.06 З 1 20 км 5/1 1000 м
[Cu med, cong Cs]
+30.9 +18.6 48 +36 +36 очень
душно
1011.4 1005.7 +37.6
19 15.06 штиль 0 20 км 5/1 1000 м
[Cu hum Cs]
+29.2 +19.7 57 +35 +35 очень
душно
1011.4 1005.7
20 15.06 штиль 0 20 км 4/1 1000 м
[Cu med, cong Cs]
+28.5 +17.6 52 +33 +33 очень
душно
1011.8 1006.1
21 15.06 СЗ 1 20 км 4/1 1000 м
[Cu med, cong Cs]
+28.5 +16.4 48 +32 +32 душно 1011.9 1006.2

 

Местоположение метеостанции Подгорица-Град (Черногория): широта 42.43 долгота 19.28 высота над уровнем моря 50 м.

В архиве по умолчанию представлена погода в Подгорица-Граде за последнюю неделю. Архивные данные за месяц целиком и за предыдущие месяцы, начиная с января 2011 года, Вы можете получить, выбрав интересующий диапазон дат из раскрывающегося списка и нажав кнопку "Ввод!".


*Определитесь, кто Вы:
робот инопланетянин человек

Внимание! Время в таблицах - всемирное. Для получения местного времени необходимо прибавить поправку, которая равна 1 ч.

Смотрите также архив погоды в соседних городах и на ближайших метеорологических станциях:

Погода в Подгорице (Черногория) (7 км)
Погода в Баре (Черногория) (40 км)
Погода в Шкодре (Албания) (42 км)
Погода в Тивате (Черногория) (45 км)
Погода в Никшиче (Черногория) (46 км)
Погода в Дубровник аэропорту (Хорватия) (84 км)
Погода в Дубровнике (Хорватия) (101 км)
Погода в Плевле (Черногория) (102 км)
Погода в Женике (Сербия) (111 км)
Погода в Кукесе (Албания) (115 км)

Пояснения к столбцам:

Ветер - указаны скорость ветра в м/с - средняя за 10 мин, порывы в срок и между сроками (в фигурных скобках) и направление, откуда дует ветер: С - северный, СВ - северо-восточный, В - восточный, ЮВ - юго-восточный, Ю - южный, ЮЗ - юго-западный, З - западный, СЗ - северо-западный.
Видимость - горизонтальная дальность видимости в метрах или километрах. При видимости от 1 до 10 км при отсутствии осадков обычно наблюдается дымка, при ухудшении видимости до 1 км и менее - туман. В сухую погоду видимость может ухудшаться дымом, пылью или мглою.
Явления - указаны атмосферные явления, наблюдавшиеся в срок или в последний час перед сроком; фигурными скобками обозначены явления, наблюдавшиеся между сроками (за 1-3 часа до срока); квадратными скобками обозначены град или гололедные отложения с указанием их диаметра в мм.
Облачность - указаны через наклонную черту общая и нижняя облачность в баллах и высота нижней границы облаков в метрах; квадратными скобками обозначены формы облаков: Ci - перистые, Cs - перисто-слоистые, Cc - перисто-кучевые, Ac - высококучевые, As - высокослоистые, Sc - слоисто-кучевые, Ns - слоисто-дождевые, Cu - кучевые, Cb - кучево-дождевые. Подробнее классификацию облаков см. в Атласе облаков (PDF).
T - Температура воздуха - температура, измеренная на высоте 2 м над землей.
Td - Температура точки росы - температура, при понижении до которой содержащийся в воздухе водяной пар достигнет насыщения.
f - Относительная влажность воздуха - влажноcть воздуха, измеренная на высоте 2 м над землей.
Te - Эффективная температура - температура, которую ощущает одетый по сезону человек в тени. Характеристика душности погоды. При расчете учитывается влияние влажности воздуха и скорости ветра на теплоощущения человека.
Tes - Эффективная температура на солнце - температура, которую ощущает человек, с поправкой на солнечный нагрев. Характеристика знойности погоды. Зависит от высоты солнца над горизонтом, облачности и скорости ветра. Ночью, в пасмурную погоду, а также при ветре 12 м/с и более поправка равна нулю.
P - Атмосферное давление - приведенное к уровню моря атмосферное давление.
Po - Атмосферное давление - измеренное на уровне метеостанции атмосферное давление.
Tmin - Минимальная температура - минимум температуры воздуха на высоте 2 м над землей.
Tmax - Максимальная температура - максимум температуры воздуха на высоте 2 м над землей.
R - Количество осадков - Количество выпавших осадков за период времени, мм. При наведении курсора мыши на число - период времени, за который выпало указанное количество осадков.
R24 - Количество осадков - Количество выпавших осадков за 24 часа, мм.
S - Снежный покров - Высота снежного покрова, см. При наведении курсора мыши на число - состояние снежного покрова и степень покрытия местности в баллах.